Temperature
8 6 6 7 8 9 9 9 9 10 11 10 9 10 10 11 11 11 11 12 12 13 14 13 13 13 13 13 12 12 12 12 12 12 12 12 12 12 12 11 11 11 11 11
6 6 7 8 8 9 9 8 8 9 10 10 9 9 9 10 10 11 11 12 12 13 13 13 13 13 13 12 12 12 12 12 12 12 12 12 11 11 11 11 11 11 11 11
6 7 8 8 8 8 8 8 8 9 9 9 9 9 9 9 10 11 12 12 12 13 13 12 12 12 12 12 12 12 12 12 11 11 11 11 11 11 10 11 11 10 10 10
6 7 8 8 8 8 8 9 9 9 8 7 8 7 8 8 9 9 10 11 12 12 12 12 12 12 12 12 12 12 11 11 11 11 10 10 10 10 10 10 10 10 10 10
6 7 7 7 8 8 8 9 9 8 7 7 7 6 7 7 8 9 9 10 11 12 12 12 12 12 12 12 12 11 11 11 10 10 10 10 10 10 10 9 9 9 9 9
6 7 7 7 8 8 8 7 7 6 6 6 6 6 6 6 7 8 8 9 10 11 11 12 12 11 11 11 11 11 10 10 10 10 9 9 9 9 9 9 9 9 9 9
5 6 7 7 7 7 7 6 5 5 5 5 6 6 7 7 7 8 8 8 9 10 10 11 10 10 10 10 10 10 10 10 9 9 9 9 8 8 8 8 8 8 8 8
4 4 6 6 6 6 6 6 5 5 4 5 6 6 6 7 7 8 8 8 8 9 9 10 10 10 10 10 10 9 9 9 9 9 8 8 8 8 8 8 8 8 8 7
3 4 5 6 6 6 5 5 5 4 4 4 5 6 6 7 6 6 6 6 7 8 8 9 9 9 9 9 9 9 9 9 8 8 8 8 7 7 7 7 7 7 7 7
3 3 4 5 6 6 6 5 4 4 4 5 6 5 5 6 5 5 5 5 6 7 7 8 8 8 8 8 8 8 8 8 8 8 7 7 7 7 7 7 7 6 6 6
3 2 3 4 4 4 5 5 4 3 3 4 5 5 6 5 5 4 4 5 5 6 6 7 7 7 7 8 7 7 7 7 7 7 7 7 6 6 6 6 6 6 6 6
2 1 1 2 3 4 4 4 3 3 3 3 3 5 6 4 4 4 4 5 5 5 6 6 6 6 6 7 7 7 7 7 6 6 6 6 6 6 6 6 6 6 5 5
2 1 1 2 2 3 3 3 3 3 2 2 3 4 4 4 4 4 4 4 5 5 5 5 5 5 6 6 6 6 6 6 6 6 5 5 5 5 5 5 5 5 5 5
2 0 1 1 1 1 2 2 2 3 3 2 3 3 4 4 3 3 4 4 4 4 4 5 5 5 5 5 5 5 5 5 5 5 5 5 5 5 5 5 5 4 4 5
1 0 0 1 2 2 2 2 2 2 3 3 3 3 4 3 3 3 3 3 3 3 4 4 4 4 4 4 4 4 4 4 4 4 4 4 4 4 4 4 4 4 4 4
-0 -0 0 1 2 2 2 2 2 3 3 3 3 3 3 3 3 3 3 3 3 3 3 3 3 3 3 4 4 4 4 4 4 4 4 4 4 4 4 4 4 4 3 3
-1 -1 -0 0 1 2 1 2 2 2 2 3 3 3 2 2 2 2 3 3 3 3 3 3 3 3 3 3 3 3 3 3 3 3 3 3 3 3 3 3 3 3 3 3
-1 -1 -1 -1 0 -0 1 2 2 2 2 2 2 2 2 1 1 2 2 2 2 2 2 2 2 2 2 2 2 3 3 3 3 3 3 2 2 2 2 3 3 2 2 2
-1 -1 -2 -1 -1 -0 1 1 1 1 1 1 1 1 1 1 1 1 1 2 2 2 2 2 2 2 2 2 2 2 2 2 2 2 2 2 2 2 2 2 2 2 2 2
-2 -2 -2 -2 -1 -1 0 1 1 1 0 0 1 0 0 1 -0 -0 0 1 1 1 1 1 1 1 1 1 1 1 1 1 1 1 1 1 1 1 1 1 1 1 1 1
-2 -2 -2 -2 -2 -1 -1 0 1 0 -0 0 0 0 0 -0 -0 -0 -0 0 1 1 1 1 1 1 1 1 1 1 1 1 1 1 1 1 1 1 1 1 1 0 0 0
-3 -3 -3 -3 -3 -2 -1 -1 -1 -1 -0 -0 -0 -0 -0 -0 -0 -1 -0 -0 -0 -0 -0 -0 0 0 -0 -0 -0 0 0 0 0 0 0 0 0 0 0 0 0 -0 -0 -0
-3 -3 -3 -3 -2 -2 -2 -1 -1 -1 -1 -1 -1 -1 -1 -1 -1 -1 -1 -1 -1 -1 -1 -1 -1 -1 -1 -1 -1 -1 -1 -1 -0 -0 -0 -0 -0 -0 -0 -0 -0 -0 -1 -1
-4 -3 -3 -3 -3 -3 -2 -2 -1 -1 -1 -1 -1 -1 -1 -1 -1 -1 -1 -1 -1 -1 -1 -1 -1 -1 -1 -1 -1 -1 -1 -1 -1 -1 -1 -1 -1 -1 -1 -1 -1 -1 -1 -1
-5 -4 -4 -4 -3 -3 -3 -2 -2 -2 -1 -1 -1 -1 -1 -1 -2 -2 -2 -2 -2 -2 -2 -2 -2 -2 -2 -2 -2 -2 -2 -2 -2 -2 -2 -2 -2 -2 -1 -1 -1 -2 -2 -2
-5 -5 -4 -4 -4 -4 -4 -3 -3 -2 -2 -2 -2 -2 -2 -2 -2 -2 -2 -2 -2 -2 -2 -2 -2 -3 -2 -2 -2 -2 -2 -2 -2 -2 -2 -2 -2 -2 -2 -2 -2 -2 -3 -3
Wind_Speed
4 4 10 12 11 6 6 5 5 6 4 6 9 11 11 8 6 8 8 9 9 10 9 7 8 8 8 8 8 8 7 6 5 3 3 2 2 2 2 3 4 4 4 4
3 9 9 6 7 6 5 5 5 3 2 4 6 10 10 9 8 9 10 11 11 9 6 6 7 8 9 10 9 8 8 7 6 4 3 2 2 2 2 2 3 4 4 4
8 5 7 8 7 9 9 8 6 4 2 2 1 7 8 6 5 6 7 9 9 11 11 9 9 8 8 9 10 9 8 7 6 4 3 2 2 1 0 1 2 3 4 4
5 4 6 7 8 8 9 7 7 5 2 3 3 5 7 6 5 7 7 8 9 9 9 9 10 10 10 9 8 8 7 6 5 5 5 5 3 3 3 3 3 3 3 4
5 4 6 8 8 8 6 3 4 4 4 3 3 4 8 4 6 8 7 8 8 8 9 10 10 11 9 8 8 7 7 5 5 5 6 5 3 3 2 1 2 3 3 4
4 3 4 5 4 6 4 4 4 3 3 5 8 7 7 5 8 7 6 5 5 7 7 8 7 7 7 6 6 6 6 5 4 5 5 5 4 3 2 2 3 3 2 3
2 2 2 3 4 3 5 6 2 1 3 7 5 7 8 7 6 7 7 5 4 5 7 7 7 7 7 7 6 6 6 4 4 4 4 4 4 4 4 4 4 3 3 3
4 4 5 4 5 6 7 8 7 7 7 4 4 8 6 5 3 3 4 4 4 4 5 6 7 7 7 7 6 6 6 4 4 4 3 2 2 2 3 3 3 4 3 4
5 4 2 2 3 7 6 6 5 4 2 2 5 4 4 3 3 3 4 5 5 4 4 5 5 6 6 6 5 6 6 4 4 3 2 2 1 2 2 2 2 2 3 3
5 2 2 1 2 1 4 6 4 5 6 5 4 4 4 3 2 3 4 4 4 4 4 4 4 4 4 4 4 4 5 5 3 3 2 2 1 2 2 1 2 3 3 3
3 3 1 1 4 5 4 4 4 4 4 5 4 5 3 5 4 5 4 4 5 4 4 4 4 3 4 4 4 3 3 3 2 2 2 1 1 1 1 1 2 3 3 3
3 4 2 3 3 2 3 5 6 5 4 4 4 4 3 2 4 6 5 4 4 5 4 4 5 5 5 4 4 3 2 2 1 1 1 1 0 0 0 1 2 2 2 2
4 5 3 2 3 1 1 3 3 3 3 4 4 4 3 3 4 4 5 4 4 5 5 5 5 5 4 4 3 3 2 1 1 1 1 1 1 0 1 2 2 2 2 2
3 4 5 8 6 4 3 3 3 4 4 4 6 5 2 2 3 3 4 4 4 4 5 5 4 4 3 3 3 3 2 2 1 1 1 1 0 1 1 1 1 2 2 2
3 3 3 3 3 3 4 5 5 6 6 6 6 6 6 5 4 5 5 5 5 4 4 4 3 3 3 3 3 3 3 2 2 2 1 1 1 1 1 1 2 2 1 2
2 2 2 1 2 2 3 4 5 6 5 6 4 6 3 2 2 4 5 6 5 4 3 3 3 3 3 3 3 3 3 3 2 2 2 2 2 2 1 2 2 2 2 2
1 2 2 2 1 2 3 4 5 4 4 6 7 5 4 4 5 5 5 5 5 4 3 3 2 2 1 2 2 3 3 3 3 2 2 2 2 2 2 2 2 2 2 2
3 3 2 2 2 3 4 2 2 3 2 2 3 4 5 5 3 3 3 4 4 4 3 2 2 1 2 2 3 3 3 3 3 3 3 3 2 2 3 2 2 3 2 2
3 4 2 2 2 3 4 2 0 1 1 1 4 5 4 5 5 4 2 3 3 3 3 2 1 1 2 2 2 3 3 3 3 3 3 3 3 3 3 3 3 3 2 2
3 3 3 2 2 4 3 4 3 2 1 2 2 5 5 5 3 1 1 3 4 3 3 2 3 3 3 2 2 3 3 3 3 3 3 3 3 3 3 3 3 3 2 2
2 2 2 2 2 4 4 6 2 3 3 1 1 3 4 2 2 3 3 2 3 3 3 3 3 3 2 2 3 3 3 3 3 3 3 3 3 3 3 2 2 2 2 2
3 3 2 3 2 5 4 2 2 2 1 1 1 2 3 3 3 3 3 3 2 2 3 3 3 3 3 3 3 3 3 4 3 3 3 3 3 3 3 2 3 2 1 2
1 3 3 4 3 2 2 1 2 0 1 1 1 2 3 3 2 2 1 2 1 2 2 2 2 2 3 2 1 1 4 4 3 3 3 3 4 3 3 2 2 2 1 1
3 1 1 1 1 2 3 3 4 3 2 2 2 2 3 3 2 1 1 1 1 1 1 1 1 2 3 3 2 2 3 3 2 3 3 3 3 4 3 3 2 2 2 2
3 2 1 0 2 2 4 4 3 4 5 5 4 3 3 3 2 1 1 1 1 1 1 1 1 2 3 3 3 3 3 3 2 3 3 3 3 3 3 3 2 3 2 3
2 1 1 2 3 1 2 3 3 4 3 3 3 3 2 1 1 0 0 0 0 0 1 1 2 2 3 3 4 4 3 2 2 3 3 3 3 3 2 3 4 5 4 6
Wind_Direction
158 157 201 203 200 192 171 178 213 230 218 188 220 240 252 255 231 221 214 210 207 212 211 189 179 169 160 160 161 162 157 161 151 145 151 160 192 211 214 203 198 192 193 197
146 220 214 190 201 212 212 218 231 269 249 206 234 253 257 248 230 215 210 210 209 210 197 181 171 163 164 168 170 168 167 168 169 172 173 173 181 204 222 214 208 200 196 204
194 215 183 189 202 210 223 214 212 219 341 347 282 282 260 257 236 226 215 205 201 199 193 186 179 177 171 171 173 174 173 171 167 158 134 99 76 55 295 245 244 229 213 212
223 232 183 189 205 193 228 215 202 199 178 254 187 261 268 245 246 233 224 210 203 198 189 183 179 178 179 179 173 168 168 166 163 156 159 165 180 207 225 229 239 253 232 222
220 197 180 199 207 185 206 188 188 194 183 239 219 219 275 255 237 239 231 216 206 192 179 179 180 178 175 170 167 164 159 160 162 165 169 172 194 216 232 236 239 252 250 233
226 227 196 196 180 173 148 88 71 62 111 237 216 197 262 233 225 231 232 219 199 175 167 168 164 153 152 154 152 152 153 161 162 163 168 173 185 200 214 239 237 249 253 244
245 252 216 158 133 146 135 120 118 216 222 239 205 199 244 247 231 211 208 195 171 157 151 147 146 145 147 150 151 152 153 159 164 163 172 182 190 199 212 226 230 237 245 250
171 225 214 190 174 175 179 162 172 189 207 247 204 218 243 272 249 186 165 143 120 115 134 142 152 153 154 155 154 155 159 163 166 168 182 186 188 205 227 231 228 231 235 241
169 223 272 217 167 147 157 188 172 146 162 213 235 255 302 350 48 86 105 103 112 112 116 129 134 142 151 156 159 160 160 160 165 167 168 179 200 216 230 243 235 239 245 249
149 188 269 272 90 80 159 148 135 160 173 217 245 236 232 235 199 139 122 117 107 98 91 100 110 121 136 146 144 143 150 156 161 157 172 183 214 229 229 234 251 249 250 253
137 150 300 84 182 179 150 162 164 165 177 176 211 253 230 203 186 161 150 138 120 110 99 92 86 89 102 98 101 109 123 128 137 153 165 163 213 232 230 245 258 253 255 257
143 129 193 254 284 237 185 180 161 174 212 193 182 258 315 190 154 140 136 120 112 105 95 89 82 75 75 76 77 79 93 111 136 152 147 154 133 32 254 268 275 272 275 273
143 131 113 348 327 325 197 191 175 155 148 173 180 244 351 80 105 123 129 121 110 100 89 82 76 73 71 68 68 68 70 80 72 103 121 111 67 34 310 298 303 298 289 291
127 138 173 192 208 188 208 217 193 171 190 204 216 219 253 138 134 137 135 127 116 105 97 87 75 69 65 61 61 59 45 49 54 70 85 75 335 308 297 303 309 311 303 303
102 157 192 230 231 196 223 227 212 213 207 202 220 219 228 211 185 160 147 133 118 109 96 92 82 65 53 43 34 38 33 23 31 52 44 352 326 334 338 331 323 321 314 307
68 141 152 257 237 214 257 251 231 229 217 210 214 253 245 191 136 135 138 136 131 121 112 99 82 66 51 40 29 25 19 7 25 43 17 353 350 350 339 323 325 331 323 315
93 118 131 216 250 54 276 250 225 216 217 199 220 229 161 146 151 160 156 143 142 137 120 111 102 90 57 30 27 14 5 9 26 25 12 5 350 341 323 321 335 325 312 309
155 142 147 160 106 205 245 285 201 190 238 192 158 144 144 140 118 99 127 133 136 132 120 113 107 77 32 24 21 17 17 24 30 19 12 7 356 342 330 324 319 309 303 304
169 152 136 143 174 265 299 323 4 155 312 76 140 127 117 110 84 44 44 93 121 124 120 118 112 99 59 36 29 41 27 24 24 10 1 354 350 341 334 324 312 309 310 309
86 114 126 135 164 223 259 301 305 108 280 343 123 140 144 127 129 217 64 76 82 81 77 74 59 54 43 17 37 52 26 21 1 339 330 329 333 329 317 305 303 306 308 306
85 93 146 167 213 262 287 301 3 143 235 309 99 138 143 164 177 158 124 85 85 78 65 62 62 52 29 20 45 38 15 348 323 325 332 337 330 319 308 308 310 313 322 325
160 152 172 160 197 255 314 37 129 223 299 48 89 123 119 119 118 123 117 103 84 65 55 55 53 29 13 24 42 21 344 322 325 336 341 339 331 325 327 321 313 316 322 329
166 190 186 186 207 279 357 48 327 12 73 33 77 101 115 117 122 111 111 111 92 78 58 56 60 16 2 4 27 341 312 319 332 341 333 329 330 329 322 315 312 317 322 319
340 346 132 138 329 340 4 12 14 34 55 58 88 104 114 120 120 89 96 80 70 54 48 37 39 11 344 344 353 328 316 326 336 328 321 322 325 328 332 329 326 314 307 305
311 349 45 305 307 354 5 5 12 36 51 57 53 60 89 111 111 94 81 60 45 8 4 26 5 328 319 327 333 331 325 331 331 319 315 321 323 319 324 327 322 315 293 286
333 300 228 244 267 261 300 342 21 44 33 39 45 31 32 92 119 76 65 327 328 336 331 335 325 316 314 322 321 321 320 315 308 312 310 308 311 311 316 322 327 333 326 325
Height
1460 1465 1465 1464 1465 1467 1469 1472 1473 1471 1467 1470 1471 1469 1466 1464 1465 1465 1466 1467 1469 1471 1474 1478 1481 1483 1486 1489 1491 1493 1496 1498 1500 1502 1503 1504 1505 1507 1508 1509 1509 1510 1510 1510
1462 1462 1458 1461 1464 1466 1468 1471 1472 1469 1466 1468 1470 1468 1463 1461 1460 1460 1461 1463 1465 1468 1471 1474 1477 1479 1482 1484 1487 1490 1492 1495 1497 1498 1500 1501 1502 1504 1505 1506 1506 1506 1507 1507
1457 1455 1455 1459 1462 1465 1466 1470 1471 1470 1468 1467 1469 1468 1463 1458 1456 1457 1458 1458 1461 1463 1465 1469 1472 1475 1478 1480 1483 1486 1488 1491 1493 1495 1497 1498 1499 1500 1501 1502 1502 1503 1503 1504
1454 1452 1453 1456 1459 1461 1465 1462 1465 1467 1473 1477 1473 1479 1464 1458 1456 1454 1454 1454 1456 1458 1461 1464 1467 1470 1473 1476 1479 1482 1485 1487 1490 1491 1493 1494 1494 1495 1496 1498 1499 1499 1500 1500
1452 1451 1452 1454 1455 1457 1460 1459 1463 1466 1472 1477 1475 1479 1467 1459 1456 1452 1450 1450 1451 1454 1456 1459 1463 1466 1469 1473 1476 1478 1481 1484 1486 1488 1489 1490 1491 1492 1493 1494 1495 1495 1496 1496
1450 1449 1449 1450 1452 1454 1457 1461 1466 1471 1475 1479 1472 1476 1467 1460 1452 1449 1448 1447 1448 1450 1453 1456 1459 1463 1466 1469 1472 1475 1478 1480 1483 1484 1486 1487 1488 1489 1489 1490 1491 1491 1492 1492
1451 1449 1448 1448 1452 1455 1457 1466 1478 1481 1483 1478 1467 1468 1460 1450 1447 1445 1445 1445 1446 1448 1451 1453 1456 1460 1463 1466 1469 1472 1475 1477 1479 1481 1482 1484 1485 1485 1486 1486 1487 1487 1487 1487
1455 1455 1448 1447 1449 1453 1456 1461 1472 1479 1480 1474 1465 1464 1454 1446 1443 1442 1443 1445 1446 1448 1450 1452 1455 1458 1461 1464 1467 1469 1472 1474 1476 1478 1479 1481 1481 1482 1482 1482 1483 1483 1483 1483
1455 1453 1447 1446 1446 1449 1456 1459 1460 1470 1473 1473 1465 1458 1451 1445 1443 1443 1444 1445 1446 1448 1450 1451 1454 1457 1459 1462 1464 1467 1469 1472 1473 1475 1476 1478 1478 1478 1478 1479 1479 1479 1479 1479
1449 1455 1449 1448 1447 1448 1450 1453 1462 1468 1471 1467 1460 1458 1454 1448 1447 1446 1447 1447 1448 1449 1450 1452 1454 1456 1458 1461 1463 1465 1467 1469 1471 1473 1474 1474 1475 1475 1475 1475 1475 1475 1475 1475
1448 1455 1454 1451 1451 1451 1453 1455 1457 1463 1465 1466 1463 1457 1446 1446 1446 1447 1448 1448 1449 1450 1451 1452 1454 1456 1458 1460 1462 1464 1466 1468 1469 1470 1471 1472 1472 1472 1472 1471 1471 1471 1471 1471
1448 1456 1460 1455 1451 1449 1450 1451 1455 1462 1464 1464 1464 1459 1444 1444 1445 1447 1449 1450 1451 1452 1453 1454 1455 1457 1458 1460 1462 1463 1465 1466 1467 1468 1469 1469 1469 1469 1469 1468 1468 1468 1467 1467
1446 1455 1462 1460 1458 1453 1451 1451 1452 1456 1460 1464 1463 1458 1447 1446 1446 1448 1449 1451 1452 1453 1454 1455 1456 1457 1458 1459 1461 1462 1463 1464 1465 1466 1466 1467 1467 1466 1466 1466 1465 1464 1464 1463
1444 1452 1456 1457 1453 1453 1453 1452 1452 1454 1457 1459 1457 1453 1449 1448 1448 1449 1451 1452 1453 1454 1455 1455 1456 1457 1458 1459 1460 1461 1462 1463 1463 1464 1464 1464 1464 1464 1463 1463 1462 1462 1461 1460
1444 1451 1451 1450 1448 1449 1449 1449 1449 1451 1451 1453 1449 1449 1448 1448 1448 1449 1451 1452 1453 1454 1455 1456 1457 1458 1458 1459 1460 1460 1461 1461 1462 1462 1462 1461 1461 1461 1461 1460 1459 1458 1457 1456
1446 1450 1451 1450 1446 1446 1447 1446 1446 1447 1446 1447 1447 1448 1446 1447 1448 1449 1451 1452 1453 1454 1455 1456 1457 1457 1458 1458 1459 1459 1459 1460 1460 1460 1459 1459 1459 1458 1457 1457 1456 1455 1454 1453
1449 1451 1453 1453 1448 1447 1451 1446 1445 1445 1443 1443 1445 1445 1445 1447 1449 1450 1451 1451 1452 1454 1455 1456 1457 1457 1457 1458 1458 1458 1458 1458 1458 1458 1457 1456 1456 1455 1454 1454 1453 1452 1451 1450
1449 1451 1455 1455 1454 1458 1449 1442 1441 1441 1441 1441 1442 1444 1445 1447 1449 1450 1451 1452 1452 1453 1455 1456 1456 1456 1457 1457 1457 1457 1456 1456 1456 1455 1455 1454 1453 1452 1451 1451 1450 1449 1448 1447
1446 1450 1454 1456 1457 1453 1446 1443 1443 1443 1444 1443 1443 1444 1446 1447 1448 1451 1452 1452 1452 1453 1454 1455 1455 1455 1456 1456 1456 1455 1455 1455 1454 1453 1452 1452 1451 1450 1449 1448 1447 1446 1445 1444
1446 1449 1455 1457 1456 1454 1447 1443 1441 1443 1447 1444 1443 1444 1446 1447 1451 1453 1452 1452 1452 1453 1453 1454 1454 1454 1454 1454 1454 1454 1453 1453 1452 1451 1451 1450 1449 1448 1447 1446 1445 1444 1443 1441
1451 1452 1455 1457 1458 1453 1447 1443 1441 1449 1448 1444 1443 1444 1445 1446 1449 1450 1451 1452 1452 1452 1453 1453 1453 1453 1453 1453 1453 1452 1451 1451 1450 1449 1449 1448 1447 1446 1445 1444 1443 1441 1440 1439
1452 1454 1457 1458 1459 1457 1446 1444 1447 1447 1444 1443 1443 1444 1444 1445 1447 1448 1450 1450 1451 1451 1451 1452 1451 1451 1451 1451 1451 1450 1449 1449 1448 1447 1446 1445 1444 1443 1442 1441 1440 1439 1438 1436
1451 1452 1453 1454 1455 1450 1447 1446 1445 1444 1444 1444 1444 1444 1444 1445 1446 1448 1449 1449 1450 1450 1450 1450 1450 1449 1449 1449 1449 1448 1447 1446 1445 1444 1443 1442 1441 1441 1440 1438 1437 1436 1435 1433
1451 1450 1451 1452 1451 1449 1448 1446 1446 1445 1444 1444 1444 1444 1445 1445 1446 1447 1448 1448 1448 1448 1449 1448 1448 1447 1447 1447 1446 1445 1444 1444 1443 1442 1441 1440 1438 1437 1437 1436 1434 1433 1432 1430
1454 1451 1451 1452 1451 1449 1448 1447 1446 1445 1445 1445 1444 1445 1445 1445 1445 1446 1446 1447 1447 1447 1447 1447 1446 1445 1445 1444 1443 1443 1442 1441 1440 1439 1438 1437 1436 1434 1433 1432 1431 1430 1429 1428
1454 1454 1454 1452 1451 1450 1449 1448 1447 1446 1445 1445 1445 1444 1445 1445 1445 1445 1445 1445 1445 1445 1445 1444 1444 1443 1442 1441 1440 1440 1439 1438 1437 1435 1435 1434 1432 1431 1430 1428 1428 1427 1426 1425